Wind_Speed
14 11 11 11 11 11 11 9 7 4 4 5 5 5 6 6 7 8 9 10 11 11 13 14 14 15 15 16 16 17 17 16 17 15 16 14 15 19 16 16 16 18 19 19 20
11 10 11 11 11 11 11 11 10 9 6 3 7 11 13 13 13 14 15 15 16 16 16 16 17 17 17 17 17 16 15 16 16 15 14 16 16 18 17 16 15 17 18 20 21
8 10 11 12 12 11 12 12 12 11 10 8 7 5 5 8 10 11 12 12 13 13 14 15 15 15 14 14 14 13 13 14 14 15 15 15 14 17 19 19 19 18 18 18 20
10 10 11 13 14 16 16 15 16 15 14 11 10 9 8 7 5 6 7 8 10 11 11 10 10 10 11 12 13 13 13 14 14 14 13 13 15 15 17 19 19 20 20 20 23
10 10 11 15 15 14 14 14 16 17 14 13 12 10 9 8 8 7 8 7 9 9 10 10 10 10 11 12 14 14 13 13 13 16 17 16 17 18 19 20 20 22 25 27 30
10 12 16 17 17 15 16 16 16 16 15 14 12 10 8 8 8 10 10 10 10 11 11 11 12 13 14 14 14 13 14 15 16 16 18 20 21 23 25 25 26 26 29 33 34
13 17 16 17 18 19 19 17 15 15 15 12 13 12 10 10 12 11 13 13 12 12 12 13 14 15 15 15 15 15 14 15 13 15 17 22 26 28 33 33 32 36 36 37 40
17 16 15 15 16 17 19 19 16 15 14 13 11 11 11 12 13 13 13 12 12 13 13 15 14 14 15 17 16 16 15 15 17 18 20 24 27 33 37 43 47 44 46 50 53
16 13 13 14 16 18 20 20 17 14 12 12 12 12 13 13 13 12 11 11 12 12 15 16 17 19 20 17 18 21 24 27 29 26 28 33 31 34 35 41 46 49 54 57 60
13 11 11 13 15 18 21 21 18 14 13 13 12 12 12 11 9 11 11 11 13 14 14 15 16 18 17 21 22 25 25 27 32 33 33 39 34 35 42 48 52 57 60 63 63
11 9 10 11 14 18 22 22 18 16 12 13 12 11 11 10 11 10 11 13 16 18 17 17 17 17 19 20 23 27 30 33 35 39 42 42 42 45 50 52 58 61 63 66 70
10 4 7 8 13 17 21 20 19 17 14 13 12 11 10 11 11 12 13 13 16 18 18 19 19 20 21 24 27 30 33 38 39 40 46 47 49 55 59 65 70 65 67 73 79
11 7 3 6 12 17 21 20 17 16 12 11 9 9 10 11 12 12 12 12 13 15 15 15 18 22 28 30 32 36 39 41 47 50 52 54 60 65 65 66 66 70 74 79 86
11 8 3 5 11 16 21 20 16 16 12 8 9 9 9 8 12 13 14 14 14 15 16 18 20 23 26 33 37 40 44 49 50 53 56 58 62 63 66 67 72 78 83 89 94
13 8 1 5 10 15 19 21 19 17 11 8 10 9 10 11 11 13 15 14 14 16 19 22 26 30 33 33 39 45 46 50 55 59 61 63 64 68 67 74 82 87 90 93 96
14 8 3 4 10 15 20 23 23 19 12 10 10 10 10 12 13 13 15 18 19 20 23 27 31 36 37 42 46 43 48 55 59 63 64 66 68 74 78 81 82 88 91 91 89
15 9 5 5 10 16 20 25 25 21 15 14 14 10 9 11 13 16 19 21 24 26 28 31 35 40 42 47 49 52 55 57 60 62 61 63 72 74 75 83 87 88 86 85 83
17 13 10 11 13 18 22 24 26 23 16 14 14 11 10 12 16 18 21 23 27 29 33 36 40 42 47 50 53 56 57 58 60 61 63 65 67 71 75 80 83 81 80 78 72
16 18 15 14 16 19 18 21 24 23 18 16 12 12 12 14 17 18 23 26 29 33 37 40 43 49 52 54 56 59 57 58 60 61 68 69 71 75 75 77 76 82 85 78 70
12 10 10 9 12 15 17 20 22 22 18 16 15 12 12 14 19 24 27 30 34 38 41 43 45 50 54 55 55 57 59 60 62 68 71 70 76 79 82 86 90 89 81 70 60
12 10 9 9 10 13 18 20 22 23 18 15 14 14 14 17 22 25 28 33 37 42 43 44 45 50 54 56 58 60 59 59 62 66 76 84 83 83 86 87 77 68 60 57 50
14 13 10 8 12 16 19 21 23 23 18 15 16 17 18 20 22 26 31 36 40 42 42 46 52 54 54 57 59 59 60 63 65 72 77 82 85 78 81 74 63 59 52 43 38
15 17 10 9 14 18 21 23 23 21 18 16 16 18 18 21 25 29 33 36 42 42 44 49 52 56 54 59 58 58 61 64 73 78 82 85 84 77 73 64 54 50 37 30 32
17 18 16 14 15 20 23 24 23 22 17 17 18 18 20 23 27 32 36 41 44 44 48 54 58 58 55 58 57 60 62 69 75 80 83 76 84 78 65 54 48 36 29 31 33
19 19 19 18 19 22 24 25 25 23 21 17 19 21 22 24 28 33 36 39 40 43 49 54 60 61 55 56 59 60 67 71 75 78 81 83 71 61 50 49 40 36 36 35 36
20 22 23 23 23 23 25 25 25 24 23 21 21 22 25 27 30 33 36 42 44 50 55 56 58 60 55 57 60 63 69 73 74 79 80 73 61 46 38 38 35 36 38 40 44
21 22 24 24 23 23 26 28 27 25 26 25 25 25 25 30 34 38 42 46 48 52 56 57 57 58 55 57 60 65 70 73 76 78 73 65 52 37 27 33 39 43 45 48 50
Wind_Direction
113 96 78 73 66 60 52 48 38 358 299 284 280 275 273 274 279 285 291 296 300 300 301 299 297 298 297 297 300 297 297 296 296 297 293 294 289 294 297 297 295 298 304 308 309
110 88 73 69 62 55 46 41 40 39 32 341 288 277 273 273 276 283 289 293 296 296 296 296 295 299 306 306 304 302 298 299 298 298 298 299 300 301 303 301 301 305 305 306 309
103 82 72 63 56 46 40 38 34 33 30 29 20 3 330 291 287 290 293 296 300 301 305 308 311 315 317 310 306 304 304 305 306 306 308 311 317 317 316 311 313 311 310 311 311
91 73 66 55 54 50 41 29 20 22 24 24 26 22 22 23 354 340 323 318 317 318 318 322 330 333 326 325 323 325 328 325 324 317 315 315 318 315 307 310 317 318 318 314 307
84 74 71 68 66 53 41 27 18 19 20 21 19 17 22 34 32 34 22 15 8 358 359 355 351 344 342 341 342 346 339 329 320 311 317 323 318 313 309 312 312 308 304 299 297
82 86 90 76 64 52 39 28 17 18 20 13 17 22 23 29 31 30 26 20 16 11 7 1 356 351 349 345 340 336 328 322 325 329 320 312 312 311 306 304 297 292 288 292 294
100 101 92 68 55 42 30 21 15 12 16 27 26 28 30 31 22 15 12 14 20 16 8 0 354 352 355 349 347 339 339 338 315 303 312 314 311 305 301 300 293 294 296 293 295
112 103 81 62 43 30 20 15 11 11 21 24 26 32 33 25 18 9 8 14 11 11 6 0 352 350 351 348 346 345 342 328 322 321 314 303 302 302 305 307 306 306 307 306 303
114 97 77 55 36 26 21 17 14 13 21 21 25 26 23 22 21 16 15 11 9 8 0 354 351 351 352 349 348 346 339 335 329 323 314 309 311 311 304 303 304 305 306 306 303
121 95 79 51 36 26 21 15 17 20 20 17 13 13 13 15 10 14 5 7 356 359 0 356 351 350 347 346 343 339 334 327 324 318 311 308 304 303 304 308 307 307 306 303 305
137 99 78 44 31 25 18 11 14 19 18 7 15 17 23 21 21 12 10 358 359 356 353 353 350 344 339 335 332 332 331 325 317 313 309 306 302 299 298 305 307 305 303 307 312
182 118 74 35 27 21 15 9 15 14 11 14 18 26 28 29 26 21 11 1 354 350 353 345 341 335 331 331 330 328 321 320 315 309 307 303 302 301 301 301 303 306 308 308 310
183 157 85 31 30 20 12 7 10 12 12 12 25 23 28 19 5 0 353 352 348 341 341 338 331 330 332 333 329 325 321 317 315 312 307 304 305 306 305 303 307 311 311 314 314
160 156 124 21 24 16 6 5 9 10 10 12 14 12 11 3 354 351 342 341 337 336 339 334 330 331 331 328 323 320 317 314 311 310 311 313 309 306 306 312 311 313 316 316 313
179 170 202 15 14 7 360 358 2 7 0 2 0 2 356 355 350 344 334 324 327 334 336 333 331 329 328 323 321 321 318 317 316 316 317 315 311 309 309 312 315 318 317 312 310
191 193 219 4 6 359 358 357 355 353 356 351 348 354 355 347 341 334 331 327 324 328 334 329 324 324 326 324 320 319 320 319 321 321 322 318 315 313 317 320 319 316 312 309 306
204 208 245 310 344 345 345 346 349 349 355 350 341 347 354 352 342 336 333 327 326 321 318 321 324 323 324 323 321 322 323 322 323 321 319 316 316 317 321 319 316 315 310 305 300
213 224 259 289 317 326 327 329 339 350 351 345 340 344 356 348 339 336 332 329 329 327 324 323 324 326 325 324 325 325 327 325 323 321 316 317 320 318 315 315 313 308 304 298 299
226 233 250 277 300 308 324 324 336 341 343 342 337 338 337 333 331 333 327 328 331 330 330 332 330 328 326 328 329 327 326 323 322 320 320 321 317 314 316 313 307 302 304 310 314
230 240 247 270 291 310 321 320 326 332 332 335 328 327 324 326 326 328 330 332 332 332 331 332 331 329 328 328 328 327 325 325 326 323 319 320 318 319 315 312 310 311 316 318 314
227 236 233 272 300 315 318 320 323 327 326 329 330 329 330 332 332 331 333 330 329 331 335 334 335 334 331 330 328 325 325 327 326 322 320 322 324 323 319 319 322 322 322 323 324
224 223 242 281 301 314 316 319 322 328 322 322 325 326 330 332 330 328 330 334 335 333 336 337 336 334 332 328 327 328 328 327 324 325 324 323 325 325 321 325 326 327 326 333 334
227 221 238 281 298 311 314 316 316 325 320 321 321 319 328 329 328 330 332 334 338 339 338 336 336 334 333 329 329 328 328 327 326 328 328 326 325 326 328 328 329 327 333 344 345
230 232 246 269 298 317 318 316 317 321 314 314 319 323 325 332 330 329 328 332 337 337 337 336 338 333 333 329 328 330 331 329 330 329 327 327 327 327 329 331 334 343 345 342 338
235 237 246 271 286 303 315 315 314 317 316 312 314 319 323 327 329 329 333 338 338 337 338 338 340 333 332 330 329 333 332 332 333 328 328 329 331 334 336 341 354 356 352 344 343
238 245 256 266 280 301 308 308 311 313 312 306 306 309 314 320 326 332 334 335 334 335 337 335 336 333 332 331 333 335 331 336 331 329 329 330 332 341 345 347 353 352 350 347 342
241 251 260 263 273 296 306 304 305 312 312 307 308 309 317 324 329 331 330 331 333 334 334 334 334 332 333 334 333 334 334 333 333 333 331 336 340 348 357 342 344 352 346 342 340
Height
5904 5904 5904 5903 5902 5901 5900 5899 5898 5897 5897 5896 5896 5895 5895 5894 5894 5894 5893 5893 5893 5892 5892 5891 5890 5889 5888 5887 5885 5884 5882 5880 5878 5877 5875 5874 5872 5869 5869 5866 5864 5861 5859 5857 5855
5905 5906 5905 5905 5904 5903 5901 5900 5899 5897 5896 5895 5894 5893 5892 5892 5892 5891 5892 5891 5891 5890 5889 5888 5887 5886 5885 5883 5882 5881 5880 5878 5876 5876 5874 5872 5869 5867 5867 5865 5863 5861 5858 5854 5851
5906 5906 5906 5906 5905 5904 5902 5901 5899 5898 5897 5895 5894 5892 5890 5890 5890 5889 5889 5888 5888 5887 5886 5885 5884 5882 5881 5880 5879 5878 5877 5876 5875 5873 5872 5870 5869 5865 5863 5861 5859 5856 5853 5850 5846
5907 5907 5907 5907 5906 5904 5903 5901 5900 5898 5897 5896 5894 5892 5890 5890 5890 5888 5888 5887 5887 5886 5885 5883 5882 5882 5881 5880 5879 5878 5877 5875 5873 5871 5869 5868 5865 5863 5859 5856 5854 5852 5849 5846 5843
5909 5909 5908 5908 5907 5905 5904 5902 5900 5899 5897 5896 5894 5892 5891 5890 5889 5888 5888 5887 5887 5886 5885 5884 5883 5882 5881 5879 5878 5877 5875 5873 5871 5868 5867 5865 5862 5859 5855 5854 5851 5848 5845 5841 5837
5910 5910 5910 5909 5908 5907 5905 5903 5900 5898 5896 5894 5893 5892 5891 5891 5890 5889 5888 5888 5887 5886 5885 5884 5883 5882 5881 5879 5878 5876 5874 5872 5869 5866 5864 5861 5857 5853 5849 5848 5845 5841 5838 5833 5828
5910 5911 5911 5910 5909 5907 5905 5903 5900 5898 5896 5894 5892 5891 5890 5891 5890 5889 5888 5888 5886 5885 5884 5883 5882 5880 5879 5877 5875 5874 5872 5869 5867 5865 5861 5855 5851 5846 5841 5839 5836 5832 5829 5823 5818
5911 5912 5911 5911 5910 5908 5906 5903 5900 5897 5895 5894 5892 5891 5891 5890 5890 5889 5888 5887 5885 5884 5882 5881 5880 5879 5877 5875 5873 5871 5870 5869 5866 5862 5857 5850 5844 5839 5833 5826 5821 5816 5812 5807 5801
5912 5912 5912 5911 5910 5908 5906 5902 5900 5896 5895 5894 5893 5892 5891 5890 5889 5887 5886 5885 5885 5883 5882 5880 5879 5878 5876 5874 5872 5869 5866 5862 5858 5854 5849 5843 5838 5831 5825 5819 5812 5805 5798 5792 5785
5913 5913 5913 5912 5911 5909 5905 5902 5900 5898 5895 5893 5892 5892 5890 5889 5888 5887 5886 5884 5882 5881 5880 5879 5877 5875 5874 5871 5868 5865 5861 5857 5853 5850 5843 5835 5830 5824 5816 5810 5803 5794 5787 5780 5773
5912 5913 5913 5912 5911 5909 5905 5903 5902 5898 5895 5893 5892 5891 5889 5888 5888 5886 5886 5884 5883 5882 5881 5880 5877 5873 5869 5866 5864 5861 5858 5855 5848 5841 5835 5830 5823 5816 5808 5800 5791 5783 5773 5762 5753
5912 5913 5913 5912 5911 5908 5906 5903 5899 5898 5895 5893 5892 5890 5889 5888 5887 5886 5885 5884 5883 5881 5879 5877 5873 5870 5867 5865 5862 5858 5853 5849 5843 5836 5829 5821 5814 5806 5798 5787 5776 5764 5754 5743 5732
5911 5913 5913 5912 5911 5908 5906 5903 5900 5897 5896 5894 5892 5890 5889 5889 5886 5885 5884 5882 5879 5877 5875 5873 5871 5869 5867 5864 5859 5854 5849 5843 5835 5829 5821 5811 5802 5791 5779 5768 5758 5746 5735 5723 5712
5910 5912 5912 5912 5911 5908 5905 5902 5900 5897 5896 5895 5892 5889 5888 5886 5886 5884 5882 5881 5879 5876 5872 5870 5866 5862 5860 5858 5853 5848 5842 5834 5827 5818 5809 5801 5785 5776 5765 5756 5743 5731 5718 5707 5695
5909 5910 5911 5910 5909 5907 5905 5902 5899 5897 5896 5894 5890 5888 5886 5885 5883 5881 5880 5877 5876 5874 5873 5870 5864 5859 5856 5849 5844 5839 5833 5825 5816 5809 5799 5787 5774 5758 5752 5739 5727 5713 5699 5686 5673
5908 5909 5909 5909 5907 5906 5904 5901 5898 5897 5893 5891 5889 5886 5886 5882 5880 5880 5878 5877 5874 5871 5868 5865 5861 5856 5852 5846 5838 5827 5821 5814 5807 5798 5788 5772 5759 5746 5736 5723 5709 5694 5681 5664 5650
5906 5906 5907 5906 5906 5904 5902 5899 5897 5893 5891 5888 5885 5883 5882 5881 5879 5877 5875 5873 5870 5868 5864 5860 5855 5848 5844 5837 5829 5822 5813 5805 5797 5786 5777 5764 5746 5734 5717 5701 5685 5672 5658 5641 5625
5903 5904 5904 5904 5903 5902 5900 5898 5895 5890 5888 5885 5883 5882 5881 5880 5877 5875 5873 5869 5866 5862 5858 5854 5849 5842 5836 5828 5820 5810 5803 5791 5779 5772 5763 5755 5738 5722 5708 5691 5673 5654 5633 5620 5607
5899 5900 5901 5901 5901 5900 5899 5896 5892 5888 5885 5883 5881 5878 5877 5875 5875 5872 5868 5865 5862 5857 5854 5848 5843 5835 5828 5820 5811 5800 5792 5782 5770 5761 5743 5734 5720 5705 5691 5676 5659 5640 5619 5600 5588
5895 5897 5898 5898 5898 5897 5895 5893 5889 5885 5883 5880 5878 5876 5874 5872 5871 5867 5863 5861 5856 5851 5846 5840 5834 5828 5820 5810 5801 5791 5783 5770 5758 5738 5725 5723 5704 5688 5675 5656 5636 5618 5601 5588 5576
5892 5893 5894 5895 5895 5894 5892 5889 5886 5883 5880 5878 5875 5873 5871 5868 5866 5863 5860 5856 5850 5845 5840 5834 5828 5821 5811 5800 5791 5780 5771 5758 5746 5731 5708 5688 5681 5664 5645 5627 5607 5594 5583 5572 5563
5888 5890 5891 5892 5893 5890 5888 5886 5884 5880 5877 5875 5873 5870 5867 5865 5862 5859 5856 5852 5846 5840 5834 5828 5821 5811 5802 5790 5782 5771 5758 5746 5731 5721 5705 5685 5673 5650 5630 5615 5598 5583 5573 5566 5559
5884 5886 5887 5888 5888 5887 5884 5882 5879 5876 5873 5870 5868 5865 5863 5860 5858 5854 5850 5845 5839 5833 5826 5819 5811 5803 5793 5782 5771 5760 5750 5735 5720 5701 5684 5666 5651 5635 5617 5602 5592 5578 5572 5565 5558
5880 5881 5883 5884 5883 5883 5880 5878 5875 5872 5868 5866 5864 5862 5859 5856 5853 5849 5844 5839 5835 5828 5821 5813 5802 5794 5784 5772 5761 5751 5739 5726 5709 5689 5676 5660 5636 5622 5606 5595 5588 5579 5571 5565 5558
5874 5876 5878 5879 5878 5877 5875 5873 5870 5868 5866 5862 5860 5858 5854 5851 5847 5843 5838 5834 5828 5821 5813 5807 5798 5788 5776 5764 5753 5741 5728 5715 5698 5675 5658 5643 5627 5612 5599 5589 5583 5576 5570 5564 5557
5870 5871 5872 5873 5873 5872 5870 5867 5865 5863 5861 5857 5854 5851 5848 5844 5840 5836 5831 5826 5821 5815 5807 5799 5789 5779 5769 5757 5746 5732 5718 5704 5687 5669 5654 5637 5627 5615 5603 5594 5586 5578 5571 5562 5554
5863 5865 5867 5867 5867 5866 5864 5861 5859 5857 5855 5852 5849 5845 5842 5839 5835 5831 5826 5821 5814 5807 5799 5791 5781 5771 5761 5749 5737 5726 5711 5697 5679 5659 5644 5631 5615 5608 5606 5597 5586 5575 5568 5558 5549